Regional Weather Roundup
Issued by NWS Albany, NY

Home | Current Version | Previous Version | Graphics & Text | Print | Product List | Glossary Off
Versions: 1 2 3 4 5 6 7 8 9 10 11 12 13 14 15 16 17 18 19 20 21 22 23 24 25 26 27 28 29 30 31 32 33 34 35 36 37 38 39 40 41 42 43 44 45 46 47 48 49 50

000
ASUS41 KALY 040510
RWRALY

NEW YORK STATE HOURLY WEATHER ROUNDUP
NATIONAL WEATHER SERVICE ALBANY NY
100 AM EDT MON MAY 04 2015

NOTE: "FAIR" INDICATES FEW OR NO CLOUDS BELOW 12,000 FEET WITH NO
SIGNIFICANT WEATHER AND/OR NO OBSTRUCTIONS TO VISIBILITY.

NYZ032-033-038>043-046>054-057>066-NYZ062>081-040600-
EAST


CITY           SKY/WX    TMP DP  RH WIND       PRES   REMARKS
ALBANY         PTCLDY    63  39  41 S6        30.12R
GLENS FALLS    CLEAR     48  42  80 CALM      30.10R
POUGHKEEPSIE   PTCLDY    54  44  69 CALM      30.13R
NEWBURGH       CLEAR     55  45  67 VRB8      30.15R
MONTGOMERY     CLEAR     51  43  74 CALM      30.14R
WHITE PLAINS   CLEAR     52  45  77 CALM      30.16R
ISLIP          CLEAR     52  48  86 SW7       30.16S
NEW YORK CITY  CLEAR     58  47  66 S5        30.16R
CENTRAL PARK   CLEAR     60  47  61 CALM      30.19R
$$

NYZ005>009-017-018-044>046-055-056-040600-
CENTRAL


CITY           SKY/WX    TMP DP  RH WIND       PRES   REMARKS
FULTON         CLEAR     51  43  74 CALM      30.09R
SYRACUSE       CLEAR     58  41  53 SE3       30.09R
ROME           CLEAR     49  41  74 CALM      30.13R
ELMIRA         PTCLDY    49  41  74 CALM      30.13R
BINGHAMTON     PTCLDY    61  36  39 SE5       30.14R
MONTICELLO     CLEAR     52  39  62 CALM      30.17R
$$

NYZ026>034-041>043-040600-
NORTH


CITY           SKY/WX    TMP DP  RH WIND       PRES   REMARKS
WATERTOWN      PTCLDY    62  39  42 S5        30.07R
FORT DRUM      NOT AVBL
MASSENA        PTCLDY    60  39  45 SW6       30.05R
SARANAC LAKE   PTCLDY    42  36  79 S3        30.10R
PLATTSBURGH    CLEAR     49  42  77 S3        30.05R
$$

NYZ001>004-010>016-019>021-040600-
WEST


CITY           SKY/WX    TMP DP  RH WIND       PRES   REMARKS
NIAGARA FALLS  CLEAR     53  39  59 S5        30.07R
BUFFALO        PTCLDY    58  39  49 S6        30.08R
DUNKIRK        CLEAR     51  43  74 S6        30.09R
JAMESTOWN      CLEAR     57  37  47 S5        30.13S
WELLSVILLE     MOCLDY    59  33  37 CALM      30.17R
ROCHESTER      PTCLDY    56  44  64 S3        30.09R
PENN YAN       CLEAR     54  43  66 SW5       30.12R
$$

             KEY
       WCI = WIND CHILL INDEX
       VSB = VISIBILITY
       HX  = HEAT INDEX
$$


USA.gov is the U.S. government's official web portal to all federal, state and local government web resources and services.